Location: Cañada de la Miga
(34.7595°N, 106.2317°W)
Time: 14:17:43
(UTC+00:00)

N. Korean satellite - Visible Passes

Search period start: 23 October 2021 00:00
Search period end: 02 November 2021 00:00
Orbit: 450 x 495 km, 97.3° (Epoch: 22 October)

Date Brightness Start Highest point End Pass type
(mag) Time Alt. Az. Time Alt. Az. Time Alt. Az.
23 Oct 6.5 12:22:14 10° N 12:25:53 79° WNW 12:29:29 10° SSW visible
24 Oct 8.1 11:54:22 10° NNE 11:57:47 38° E 12:01:10 10° SSE visible
25 Oct 9.7 11:27:14 10° NE 11:29:34 16° E 11:31:53 10° SE visible
26 Oct 6.6 12:31:11 10° N 12:34:45 57° WNW 12:38:16 10° SSW visible
27 Oct 7.4 12:03:06 10° NNE 12:06:40 52° E 12:10:09 10° S visible
28 Oct 9.3 11:35:39 10° NE 11:38:27 21° E 11:41:13 10° SSE visible
29 Oct 6.9 12:40:05 10° N 12:43:31 42° WNW 12:46:53 10° SSW visible
30 Oct 10.5 00:46:27 10° WSW 00:47:19 11° W 00:48:11 10° WNW visible
30 Oct 6.8 12:11:51 10° NNE 12:15:27 72° E 12:18:58 10° S visible
31 Oct 8.8 11:44:08 10° NE 11:47:15 27° E 11:50:18 10° SSE visible
01 Nov 10.1 11:17:39 10° ENE 11:18:56 11° E 11:20:11 10° ESE visible
01 Nov 7.3 12:48:59 10° N 12:52:12 31° WNW 12:55:22 10° SW visible
